[[{"header":{"parameterUnit":"m.s-1","parameterCategory":1,"la1":30.2991,"la2":30.254,"lo1":-89.0895,"lo2":-89.0444,"dy":0.0017,"dx":0.0017,"nx":28,"ny":28,"refTime":"2024-03-20T09:00:00:Z","depth":0,"parameterNumber":2,"parameterNumberName":"U-component_of_WINDS"},"data":[0,0,0,0,0,0,0,0,0,0,0,0,0,0,0,0,0,0,0,0,0,0,0,0,0,0,0,0,0,0,0,0,0,0,0,0,0,0,0,0,0,0,0,0,0,0,0,0,0,0,0,0,0,0,0,0,0,0,-1.1947,-1.1947,0,-1.1952,-1.1952,-1.1952,-1.1925,-1.1925,-1.1924,-1.1923,-1.1929,-1.1929,-1.193,0,0,0,0,0,0,0,0,0,0,0,0,0,-1.1915,-1.1916,-1.1947,-1.1947,-1.1947,-1.1952,-1.1952,-1.1952,-1.1925,-1.1925,-1.1924,-1.1923,-1.1928,-1.1929,-1.193,0,0,0,0,0,0,0,0,0,0,0,0,0,-1.1926,-1.1916,-1.1947,-1.1934,-1.1933,-1.1952,-1.1952,-1.1952,-1.1926,-1.1924,-1.1923,-1.1922,-1.1928,-1.1929,-1.1931,-1.1961,0,0,-1.1934,-1.1935,0,0,0,0,0,0,0,0,-1.1925,-1.1927,-1.1936,-1.1935,-1.1934,-1.1937,-1.1943,-1.1955,-1.1926,-1.1929,-1.1923,-1.1922,-1.1932,-1.1933,-1.1937,-1.1962,-1.1962,-1.1935,-1.1935,-1.1936,-1.1936,0,0,0,0,0,0,0,-1.1924,-1.1926,-1.1949,-1.1936,-1.1935,-1.1929,-1.1929,-1.1945,-1.1937,-1.1928,-1.1926,-1.1927,-1.1932,-1.1935,-1.1937,-1.1962,-1.1935,-1.1936,-1.1936,-1.1937,-1.2012,-1.2013,0,0,0,0,0,0,-1.1925,-1.1926,-1.1949,-1.1949,-1.1927,-1.193,-1.193,-1.1937,-1.1937,-1.1935,-1.1928,-1.1926,-1.1934,-1.1935,-1.1937,-1.1972,-1.1936,-1.1937,-1.1938,-1.2011,-1.2012,-1.2013,0,0,0,0,0,0,-1.1925,-1.1928,-1.1949,-1.1937,-1.1939,-1.1932,-1.194,-1.1938,-1.1942,-1.1936,-1.1935,-1.1934,-1.1933,-1.1935,-1.1955,-1.1972,-1.1938,-1.1939,-1.2009,-1.2011,-1.2013,-1.2044,0,0,0,0,0,0,-1.1924,-1.1928,-1.1939,-1.1937,-1.194,-1.1967,-1.1941,-1.1939,-1.1944,-1.1941,-1.1941,-1.194,-1.1932,-1.1953,-1.1956,-1.1973,-1.194,-1.2008,-1.201,-1.2012,-1.2041,-1.2047,-1.2051,0,0,0,0,0,-1.1923,-1.1948,-1.194,-1.1943,-1.1954,-1.1968,-1.1969,-1.196,-1.1945,-1.1957,-1.1953,-1.194,-1.197,-1.1956,-1.1959,-1.1976,-1.2006,-1.2009,-1.2012,-1.2039,-1.2046,-1.2051,0,0,0,0,0,0,-1.1952,-1.1948,-1.1938,-1.1964,-1.1966,-1.1964,-1.1978,-1.1967,-1.1974,-1.1971,-1.1958,-1.1959,-1.1981,-1.1981,-1.1965,-1.2006,-1.1986,-1.1989,-1.2005,-1.2011,-1.2016,-1.2016,-1.1941,0,0,0,0,0,-1.1962,-1.1973,-1.1968,-1.1991,-1.1993,-1.1985,-1.1991,-1.1983,-1.1985,-1.1987,-1.1985,-1.1988,-1.1997,-1.2004,-1.2013,-1.2041,-1.2041,-1.2055,-1.206,-1.2064,-1.2067,-1.2081,-1.2087,-1.2022,-1.2022,-1.2022,0,0,-1.1981,-1.198,-1.1988,-1.1997,-1.1998,-1.2011,-1.1987,-1.2001,-1.201,-1.1989,-1.2008,-1.2006,-1.2009,-1.2033,-1.2044,-1.2033,-1.2084,-1.2067,-1.207,-1.2071,-1.2085,-1.2091,-1.2096,-1.2024,-1.2024,-1.2023,0,0,-1.2023,-1.2024,-1.2042,-1.2044,-1.2046,-1.204,-1.2045,-1.2044,-1.2042,-1.2061,-1.2045,-1.2056,-1.2073,-1.2075,-1.2079,-1.2121,-1.2109,-1.2124,-1.215,-1.2164,-1.2169,-1.2173,-1.2188,-1.2194,-1.2127,-1.2127,-1.2127,0,-1.2048,-1.2065,-1.2054,-1.2069,-1.2073,-1.2054,-1.2073,-1.2075,-1.208,-1.2083,-1.2072,-1.2093,-1.2093,-1.2117,-1.2128,-1.2131,-1.2136,-1.2124,-1.2169,-1.2173,-1.2177,-1.2191,-1.2197,-1.2129,-1.2129,-1.2129,-1.2129,0,-1.2095,-1.2107,-1.2122,-1.2127,-1.2133,-1.215,-1.2141,-1.2148,-1.214,-1.2135,-1.2154,-1.2154,-1.2162,-1.2168,-1.216,-1.2191,-1.2184,-1.2171,-1.215,-1.2186,-1.2198,-1.2204,-1.2132,-1.2131,-1.2131,-1.213,0,0,-1.2156,-1.2153,-1.2159,-1.2161,-1.2161,-1.2171,-1.2187,-1.2194,-1.2201,-1.2205,-1.2218,-1.2232,-1.222,-1.2224,-1.2216,-1.2228,-1.2261,-1.2213,-1.2213,-1.2222,-1.2295,-1.2305,-1.2312,-1.2253,-1.2254,-1.2255,-1.2295,0,-1.2197,-1.2224,-1.2213,-1.2241,-1.2252,-1.2234,-1.2248,-1.225,-1.2246,-1.2255,-1.2251,-1.2262,-1.2245,-1.2247,-1.2258,-1.2255,-1.2276,-1.2252,-1.2265,-1.2266,-1.2265,-1.2318,-1.2329,-1.2367,-1.23,-1.2301,-1.2301,0,-1.2248,-1.2254,-1.2282,-1.228,-1.2284,-1.2297,-1.2303,-1.2312,-1.2313,-1.231,-1.2314,-1.2303,-1.2318,-1.2298,-1.2319,-1.2303,-1.2307,-1.2307,-1.2308,-1.2309,-1.2286,-1.2321,-1.2379,-1.2384,-1.2309,-1.2309,-1.2308,0,-1.229,-1.2304,-1.2323,-1.2325,-1.2323,-1.2332,-1.2332,-1.2332,-1.2337,-1.2343,-1.2346,-1.2353,-1.2357,-1.2363,-1.2354,-1.234,-1.2376,-1.2355,-1.2374,-1.2374,-1.2382,-1.2382,-1.2442,-1.2385,-1.2385,-1.2385,-1.2385,0,-1.2336,-1.2355,-1.2342,-1.2353,-1.2373,-1.2361,-1.2381,-1.2379,-1.2379,-1.239,-1.2375,-1.2385,-1.2373,-1.2383,-1.2376,-1.2394,-1.2396,-1.2394,-1.2392,-1.2395,-1.2395,-1.2398,-1.2395,-1.2387,-1.2386,-1.2386,-1.2386,0,-1.2386,-1.2378,-1.2398,-1.2394,-1.2393,-1.2408,-1.2405,-1.2416,-1.2411,-1.2425,-1.2427,-1.242,-1.243,-1.2421,-1.2432,-1.2427,-1.2451,-1.2445,-1.2451,-1.2449,-1.2468,-1.2466,-1.2532,-1.254,-1.2479,-1.2479,-1.248,0,-1.2417,-1.243,-1.2428,-1.2434,-1.2434,-1.2444,-1.2449,-1.2438,-1.2443,-1.2446,-1.2456,-1.2465,-1.2471,-1.2489,-1.2484,-1.2492,-1.2486,-1.2508,-1.2487,-1.249,-1.2486,-1.2485,-1.2487,-1.2513,-1.2513,-1.2514,-1.2515,0,-1.2471,-1.2467,-1.2474,-1.248,-1.2486,-1.2491,-1.2494,-1.25,-1.2488,-1.2495,-1.2505,-1.251,-1.252,-1.2529,-1.2535,-1.2535,-1.2523,-1.2521,-1.2526,-1.253,-1.2532,-1.2531,-1.2462,-1.252,-1.2519,-1.2519,-1.2519,-1.2518,-1.2512,-1.2523,-1.2523,-1.2532,-1.2533,-1.2536,-1.2546,-1.2542,-1.255,-1.2557,-1.2549,-1.2562,-1.2562,-1.2569,-1.257,-1.2579,-1.257,-1.2577,-1.2579,-1.2581,-1.2583,-1.253,-1.258,-1.258,-1.258,-1.258,-1.258,0,-1.2566,-1.2565,-1.2573,-1.2578,-1.2585,-1.2572,-1.2575,-1.2582,-1.2592,-1.2594,-1.26,-1.2612,-1.262,-1.2616,-1.2623,-1.2631,-1.2626,-1.2634,-1.2633,-1.2633,-1.2591,-1.2586,-1.2638,-1.2638,-1.2638,-1.2638,-1.2638,-1.2638,-1.2595,-1.2613,-1.2608,-1.2626,-1.2624,-1.2636,-1.2638,-1.2641,-1.2642,-1.2655,-1.2662,-1.2659,-1.2659,-1.2666,-1.2673,-1.2671,-1.2675,-1.2684,-1.2681,-1.2642,-1.2636,-1.2631,-1.2626,-1.2685,-1.2685,-1.2722,-1.2722,-1.2723]},{"header":{"parameterUnit":"m.s-1","parameterCategory":1,"la1":30.2991,"la2":30.254,"lo1":-89.0895,"lo2":-89.0444,"dy":0.0017,"dx":0.0017,"nx":28,"ny":28,"refTime":"2024-03-20T09:00:00:Z","depth":0,"parameterNumber":3,"parameterNumberName":"V-component_of_WINDS"},"data":[0,0,0,0,0,0,0,0,0,0,0,0,0,0,0,0,0,0,0,0,0,0,0,0,0,0,0,0,0,0,0,0,0,0,0,0,0,0,0,0,0,0,0,0,0,0,0,0,0,0,0,0,0,0,0,0,0,0,-1.3717,-1.3717,0,-1.3718,-1.3718,-1.3718,-1.3709,-1.3709,-1.3708,-1.3708,-1.3709,-1.371,-1.371,0,0,0,0,0,0,0,0,0,0,0,0,0,-1.3705,-1.3705,-1.3717,-1.3717,-1.3717,-1.3718,-1.3718,-1.3718,-1.3709,-1.3708,-1.3708,-1.3708,-1.3709,-1.371,-1.371,0,0,0,0,0,0,0,0,0,0,0,0,0,-1.3709,-1.3705,-1.3717,-1.3712,-1.3712,-1.3718,-1.3718,-1.3718,-1.3709,-1.3708,-1.3708,-1.3708,-1.3709,-1.371,-1.371,-1.3721,0,0,-1.3711,-1.3711,0,0,0,0,0,0,0,0,-1.3709,-1.3709,-1.3713,-1.3713,-1.3712,-1.3713,-1.3715,-1.3719,-1.3709,-1.371,-1.3708,-1.3707,-1.3711,-1.3711,-1.3712,-1.3721,-1.3721,-1.3711,-1.3712,-1.3712,-1.3712,0,0,0,0,0,0,0,-1.3708,-1.3709,-1.3717,-1.3713,-1.3713,-1.371,-1.371,-1.3716,-1.3713,-1.371,-1.3709,-1.371,-1.3711,-1.3712,-1.3712,-1.3721,-1.3711,-1.3712,-1.3712,-1.3712,-1.3738,-1.3738,0,0,0,0,0,0,-1.3709,-1.3709,-1.3717,-1.3718,-1.3709,-1.3711,-1.3711,-1.3713,-1.3713,-1.3712,-1.371,-1.3709,-1.3711,-1.3712,-1.3712,-1.3724,-1.3712,-1.3712,-1.3712,-1.3737,-1.3738,-1.3738,0,0,0,0,0,0,-1.3708,-1.371,-1.3717,-1.3713,-1.3714,-1.3711,-1.3714,-1.3713,-1.3715,-1.3713,-1.3712,-1.3712,-1.3711,-1.3712,-1.3719,-1.3724,-1.3712,-1.3713,-1.3737,-1.3737,-1.3738,-1.3748,0,0,0,0,0,0,-1.3708,-1.371,-1.3714,-1.3713,-1.3714,-1.3724,-1.3714,-1.3714,-1.3715,-1.3714,-1.3714,-1.3714,-1.3711,-1.3718,-1.3719,-1.3724,-1.3713,-1.3736,-1.3737,-1.3738,-1.3748,-1.3749,-1.3751,0,0,0,0,0,-1.3708,-1.3717,-1.3714,-1.3715,-1.3719,-1.3724,-1.3725,-1.3721,-1.3716,-1.372,-1.3719,-1.3714,-1.3724,-1.3719,-1.372,-1.3725,-1.3736,-1.3737,-1.3738,-1.3747,-1.3749,-1.3751,0,0,0,0,0,0,-1.3718,-1.3717,-1.3714,-1.3723,-1.3724,-1.3723,-1.3728,-1.3724,-1.3726,-1.3725,-1.372,-1.372,-1.3728,-1.3727,-1.3722,-1.3736,-1.3729,-1.373,-1.3735,-1.3737,-1.3739,-1.3738,-1.3713,0,0,0,0,0,-1.3722,-1.3726,-1.3724,-1.3732,-1.3733,-1.373,-1.3732,-1.3729,-1.373,-1.373,-1.3729,-1.373,-1.3733,-1.3735,-1.3738,-1.3748,-1.3747,-1.3752,-1.3754,-1.3755,-1.3756,-1.376,-1.3762,-1.3741,-1.3741,-1.3741,0,0,-1.3729,-1.3728,-1.3731,-1.3734,-1.3735,-1.3739,-1.3731,-1.3736,-1.3738,-1.3731,-1.3737,-1.3737,-1.3737,-1.3745,-1.3749,-1.3745,-1.3762,-1.3756,-1.3757,-1.3758,-1.3761,-1.3763,-1.3765,-1.3742,-1.3742,-1.3742,0,0,-1.3743,-1.3744,-1.375,-1.3751,-1.3751,-1.3749,-1.3751,-1.375,-1.3749,-1.3756,-1.375,-1.3753,-1.3759,-1.3759,-1.376,-1.3775,-1.377,-1.3776,-1.3784,-1.3788,-1.379,-1.3791,-1.3795,-1.3797,-1.3777,-1.3777,-1.3777,0,-1.3751,-1.3757,-1.3754,-1.3759,-1.376,-1.3754,-1.376,-1.3761,-1.3762,-1.3763,-1.3759,-1.3766,-1.3766,-1.3773,-1.3777,-1.3778,-1.3779,-1.3775,-1.379,-1.3791,-1.3793,-1.3796,-1.3798,-1.3778,-1.3777,-1.3777,-1.3777,0,-1.3767,-1.3772,-1.3777,-1.3778,-1.378,-1.3786,-1.3783,-1.3785,-1.3782,-1.378,-1.3786,-1.3786,-1.3789,-1.379,-1.3788,-1.3797,-1.3795,-1.3791,-1.3784,-1.3795,-1.3799,-1.38,-1.3778,-1.3778,-1.3778,-1.3778,0,0,-1.3788,-1.3787,-1.3789,-1.3789,-1.3789,-1.3792,-1.3798,-1.38,-1.3802,-1.3803,-1.3807,-1.3811,-1.3807,-1.3808,-1.3806,-1.3809,-1.382,-1.3804,-1.3804,-1.3806,-1.3829,-1.3832,-1.3834,-1.3817,-1.3817,-1.3817,-1.3829,0,-1.3801,-1.381,-1.3807,-1.3815,-1.3819,-1.3813,-1.3817,-1.3818,-1.3816,-1.3819,-1.3817,-1.3821,-1.3815,-1.3816,-1.3819,-1.3818,-1.3824,-1.3817,-1.382,-1.382,-1.3819,-1.3836,-1.3839,-1.3849,-1.383,-1.3831,-1.3831,0,-1.3818,-1.382,-1.3829,-1.3827,-1.3829,-1.3833,-1.3834,-1.3837,-1.3837,-1.3836,-1.3837,-1.3833,-1.3838,-1.3831,-1.3837,-1.3833,-1.3834,-1.3833,-1.3833,-1.3833,-1.3825,-1.3835,-1.3853,-1.3854,-1.3833,-1.3833,-1.3833,0,-1.3831,-1.3835,-1.3841,-1.3842,-1.3841,-1.3844,-1.3843,-1.3843,-1.3844,-1.3846,-1.3846,-1.3849,-1.3849,-1.3851,-1.3848,-1.3843,-1.3854,-1.3847,-1.3852,-1.3852,-1.3854,-1.3854,-1.3872,-1.3856,-1.3856,-1.3856,-1.3856,0,-1.3845,-1.3851,-1.3847,-1.385,-1.3856,-1.3852,-1.3858,-1.3857,-1.3857,-1.386,-1.3855,-1.3858,-1.3854,-1.3857,-1.3854,-1.3859,-1.386,-1.3858,-1.3857,-1.3858,-1.3858,-1.3858,-1.3857,-1.3857,-1.3856,-1.3856,-1.3856,0,-1.386,-1.3858,-1.3864,-1.3862,-1.3862,-1.3866,-1.3865,-1.3868,-1.3866,-1.387,-1.3871,-1.3868,-1.3871,-1.3868,-1.387,-1.3869,-1.3875,-1.3873,-1.3875,-1.3874,-1.3879,-1.3878,-1.3896,-1.3898,-1.3883,-1.3883,-1.3883,0,-1.3869,-1.3873,-1.3872,-1.3874,-1.3874,-1.3877,-1.3878,-1.3874,-1.3876,-1.3876,-1.3879,-1.3881,-1.3882,-1.3887,-1.3885,-1.3887,-1.3884,-1.3891,-1.3885,-1.3885,-1.3883,-1.3883,-1.3883,-1.3892,-1.3892,-1.3892,-1.3892,0,-1.3885,-1.3884,-1.3886,-1.3887,-1.3889,-1.389,-1.389,-1.3892,-1.3888,-1.389,-1.3893,-1.3894,-1.3896,-1.3898,-1.3899,-1.3899,-1.3895,-1.3894,-1.3895,-1.3896,-1.3896,-1.3895,-1.3877,-1.3894,-1.3894,-1.3894,-1.3893,-1.3893,-1.3897,-1.39,-1.3899,-1.3902,-1.3902,-1.3902,-1.3905,-1.3903,-1.3905,-1.3907,-1.3905,-1.3908,-1.3907,-1.3908,-1.3908,-1.391,-1.3908,-1.3909,-1.391,-1.391,-1.391,-1.3897,-1.3911,-1.3911,-1.3911,-1.3911,-1.3911,0,-1.3912,-1.3911,-1.3913,-1.3914,-1.3916,-1.3912,-1.3913,-1.3914,-1.3917,-1.3917,-1.3918,-1.3921,-1.3922,-1.3921,-1.3922,-1.3924,-1.3922,-1.3925,-1.3924,-1.3924,-1.3913,-1.3912,-1.3926,-1.3926,-1.3926,-1.3926,-1.3926,-1.3926,-1.3919,-1.3924,-1.3922,-1.3927,-1.3926,-1.3929,-1.3929,-1.393,-1.393,-1.3933,-1.3934,-1.3933,-1.3932,-1.3934,-1.3935,-1.3934,-1.3935,-1.3937,-1.3936,-1.3926,-1.3925,-1.3923,-1.3922,-1.3938,-1.3938,-1.3946,-1.3947,-1.3947]}]]